| time (UTC) | temp C | wind direction | speed KPH | gust KPH | rain 1hr cm | rain 24hr cm | rain mn cm | humidity % | barometer mb |
| 20260504050002 | 8 | 0 | 0.0 | 0.0 | 0.00 | 0.03 | 0.03 | 71 | 1006.7 |
| 20260504044802 | 8 | 0 | 0.0 | 0.0 | 0.00 | 0.03 | 0.03 | 70 | 1006.8 |
| 20260504043602 | 9 | 0 | 0.0 | 0.0 | 0.00 | 0.03 | 0.03 | 70 | 1006.9 |
| 20260504041202 | 10 | 0 | 0.0 | 0.0 | 0.00 | 0.03 | 0.03 | 69 | 1006.9 |
| 20260504040002 | 10 | 0 | 0.0 | 0.0 | 0.00 | 0.03 | 0.03 | 67 | 1007.0 |
| 20260504033602 | 11 | 0 | 0.0 | 0.0 | 0.00 | 0.03 | 0.03 | 64 | 1007.2 |
| 20260504032403 | 12 | 0 | 0.0 | 0.0 | 0.00 | 0.03 | 0.03 | 63 | 1007.1 |
| 20260504024802 | 12 | 201 | 0.0 | 4.8 | 0.00 | 0.03 | 0.03 | 62 | 1007.1 |
| 20260504023602 | 13 | 213 | 1.6 | 9.7 | 0.00 | 0.03 | 0.03 | 61 | 1007.1 |
| 20260504022403 | 15 | 0 | 0.0 | 0.0 | 0.00 | 0.03 | 0.03 | 56 | 1007.0 |
| 20260504021202 | 17 | 274 | 1.6 | 4.8 | 0.00 | 0.03 | 0.03 | 49 | 1007.0 |
| 20260504020002 | 18 | 0 | 0.0 | 0.0 | 0.00 | 0.03 | 0.03 | 42 | 1007.1 |
| 20260504013602 | 21 | 0 | 0.0 | 0.0 | 0.00 | 0.03 | 0.03 | 38 | 1007.2 |
| 20260504012402 | 21 | 0 | 0.0 | 0.0 | 0.00 | 0.03 | 0.03 | 34 | 1007.3 |
| 20260504011202 | 22 | 349 | 0.0 | 8.0 | 0.00 | 0.03 | 0.03 | 34 | 1007.5 |
| 20260504010003 | 22 | 314 | 0.0 | 4.8 | 0.00 | 0.03 | 0.03 | 33 | 1007.6 |
| 20260504004803 | 22 | 346 | 1.6 | 11.3 | 0.00 | 0.03 | 0.03 | 31 | 1007.7 |
| 20260504003602 | 22 | 334 | 1.6 | 9.7 | 0.00 | 0.03 | 0.03 | 30 | 1007.7 |
| 20260504002402 | 22 | 342 | 3.2 | 9.7 | 0.00 | 0.03 | 0.03 | 29 | 1007.8 |
| 20260504001203 | 23 | 317 | 3.2 | 12.9 | 0.00 | 0.03 | 0.03 | 29 | 1008.0 |
| 20260504000003 | 23 | 324 | 1.6 | 8.0 | 0.00 | 0.03 | 0.03 | 30 | 1008.1 |
| 20260503234802 | 23 | 326 | 3.2 | 11.3 | 0.00 | 0.03 | 0.03 | 28 | 1008.2 |
| 20260503233602 | 23 | 342 | 4.8 | 16.1 | 0.00 | 0.03 | 0.03 | 28 | 1008.1 |
| 20260503232403 | 23 | 333 | 4.8 | 20.9 | 0.00 | 0.03 | 0.03 | 30 | 1008.4 |
| 20260503230002 | 23 | 315 | 6.4 | 16.1 | 0.00 | 0.03 | 0.03 | 32 | 1008.6 |
| 20260503224802 | 23 | 342 | 3.2 | 16.1 | 0.00 | 0.03 | 0.03 | 33 | 1008.7 |
| 20260503223602 | 23 | 351 | 6.4 | 19.3 | 0.00 | 0.03 | 0.03 | 34 | 1008.8 |
| 20260503222403 | 22 | 350 | 4.8 | 16.1 | 0.00 | 0.03 | 0.03 | 36 | 1009.0 |
| 20260503221203 | 22 | 329 | 4.8 | 16.1 | 0.00 | 0.03 | 0.03 | 37 | 1009.3 |
| 20260503220003 | 22 | 321 | 0.0 | 9.7 | 0.00 | 0.03 | 0.03 | 39 | 1009.4 |
| 20260503214802 | 22 | 229 | 3.2 | 12.9 | 0.00 | 0.03 | 0.03 | 38 | 1009.6 |
| 20260503213603 | 22 | 265 | 4.8 | 16.1 | 0.00 | 0.03 | 0.03 | 39 | 1009.9 |
| 20260503212403 | 21 | 242 | 4.8 | 17.7 | 0.00 | 0.03 | 0.03 | 39 | 1010.2 |
| 20260503211203 | 22 | 270 | 6.4 | 20.9 | 0.00 | 0.03 | 0.03 | 40 | 1010.4 |
| 20260503210003 | 21 | 249 | 4.8 | 12.9 | 0.00 | 0.03 | 0.03 | 45 | 1010.6 |
| 20260503203602 | 22 | 303 | 8.0 | 22.5 | 0.00 | 0.03 | 0.03 | 37 | 1011.0 |
| 20260503202403 | 22 | 312 | 4.8 | 14.5 | 0.00 | 0.03 | 0.03 | 38 | 1011.2 |
| 20260503200003 | 21 | 340 | 4.8 | 12.9 | 0.00 | 0.03 | 0.03 | 41 | 1011.4 |
| 20260503194803 | 22 | 308 | 4.8 | 19.3 | 0.00 | 0.03 | 0.03 | 37 | 1011.5 |
| 20260503193602 | 21 | 324 | 3.2 | 16.1 | 0.00 | 0.03 | 0.03 | 41 | 1011.6 |
| 20260503191203 | 21 | 340 | 3.2 | 12.9 | 0.00 | 0.03 | 0.03 | 40 | 1012.0 |
| 20260503190003 | 21 | 7 | 0.0 | 11.3 | 0.00 | 0.03 | 0.03 | 40 | 1012.2 |
| 20260503183603 | 20 | 318 | 1.6 | 9.7 | 0.00 | 0.03 | 0.03 | 41 | 1012.5 |
| 20260503182403 | 20 | 9 | 3.2 | 12.9 | 0.00 | 0.03 | 0.03 | 39 | 1012.6 |
| 20260503180004 | 19 | 194 | 3.2 | 11.3 | 0.00 | 0.03 | 0.03 | 43 | 1012.9 |
| 20260503174803 | 18 | 218 | 1.6 | 8.0 | 0.00 | 0.03 | 0.03 | 48 | 1013.4 |
| 20260503172403 | 17 | 221 | 3.2 | 11.3 | 0.00 | 0.03 | 0.03 | 54 | 1013.5 |
| 20260503171203 | 16 | 198 | 4.8 | 14.5 | 0.00 | 0.03 | 0.03 | 57 | 1013.5 |
| 20260503131203 | 8 | 251 | 0.0 | 4.8 | 0.00 | 0.00 | 0.00 | 79 | 1015.1 |